Athol, MA

8:54 PM EST on February 25, 2017 (GMT -0500)
Orange Municipal

Weather History for KORE - November, 2012

Change the Weather History Date:

Wednesday, November 14, 2012

  Actual Average Record
Temperature  
Mean Temperature 36 °F -  
Max Temperature 46 °F 44 °F 61 °F (2011)
Min Temperature 24 °F 26 °F 12 °F (1996)
Degree Days  
Heating Degree Days 29    
Moisture  
Dew Point 25 °F    
Average Humidity 75    
Maximum Humidity 96    
Minimum Humidity 44    
Precipitation  
Precipitation 0.00 in - - ()
Sea Level Pressure  
Sea Level Pressure 30.51 in    
Wind  
Wind Speed 3 mph (NNW)    
Max Wind Speed 10 mph    
Max Gust Speed -    
Visibility 10 miles    
Events      
Averages and records for this station are not official NWS values.
T = Trace of Precipitation, MM = Missing Value Source: NWS Daily Summary

Daily Weather History Graph

Daily Weather History Graph

Search for Another Location

Airport or City:

Trip Planner

Search our weather history database for the weather conditions in past years. The results will help you decide how hot, cold, wet, or windy it might be!

Date:

Astronomy

Nov. 14, 2012 Rise Set
Actual Time 6:39 AM EST 4:27 PM EST
Civil Twilight 6:09 AM EST 4:57 PM EST
Nautical Twilight 5:35 AM EST 5:31 PM EST
Astronomical Twilight 5:02 AM EST 6:04 PM EST
Moon 7:26 AM EST (11/14) 5:11 PM EST (11/14)
Length of Visible Light 10h 47m
Length of Day
9h 47m
New Moon, 1% of the Moon is Illuminated
Nov 14
New Moon
Nov 20
First Quarter
Nov 28
Full
Dec 6
Last Quarter
Dec 13
New

Hourly Weather History & Observations

Time (EST) Temp. Windchill Dew Point Humidity Pressure Visibility Wind Dir Wind Speed Gust Speed Precip Events Conditions
12:52 AM 30.9 °F 27.5 °F 26.1 °F 82% 30.45 in 10.0 mi NNW 3.5 mph - N/A   Clear
1:52 AM 28.0 °F - 26.1 °F 92% 30.46 in 10.0 mi Calm Calm - N/A   Clear
2:52 AM 27.0 °F - 25.0 °F 92% 30.48 in 10.0 mi Calm Calm - N/A   Clear
3:52 AM 27.0 °F - 26.1 °F 96% 30.49 in 10.0 mi Calm Calm - N/A   Clear
4:52 AM 26.1 °F - 25.0 °F 96% 30.51 in 10.0 mi Calm Calm - N/A   Partly Cloudy
5:52 AM 28.0 °F - 26.1 °F 92% 30.53 in 10.0 mi Calm Calm - N/A   Overcast
6:52 AM 28.9 °F - 28.0 °F 96% 30.54 in 10.0 mi Calm Calm - N/A   Overcast
7:52 AM 30.9 °F - 28.9 °F 92% 30.56 in 10.0 mi Calm Calm - N/A   Overcast
8:52 AM 35.1 °F 31.0 °F 27.0 °F 72% 30.56 in 10.0 mi NNW 4.6 mph - N/A   Overcast
9:52 AM 37.0 °F 31.0 °F 26.1 °F 65% 30.57 in 10.0 mi WNW 8.1 mph - N/A   Mostly Cloudy
10:52 AM 41.0 °F 38.0 °F 25.0 °F 53% 30.54 in 10.0 mi North 4.6 mph - N/A   Clear
11:52 AM 43.0 °F 38.2 °F 25.0 °F 49% 30.52 in 10.0 mi NW 8.1 mph - N/A   Clear
12:52 PM 44.1 °F 40.1 °F 24.1 °F 45% 30.50 in 10.0 mi North 6.9 mph - N/A   Clear
1:52 PM 46.0 °F 41.0 °F 25.0 °F 44% 30.48 in 10.0 mi North 10.4 mph - N/A   Clear
2:52 PM 45.0 °F 40.1 °F 24.1 °F 44% 30.48 in 10.0 mi North 9.2 mph - N/A   Clear
3:52 PM 43.0 °F 38.8 °F 23.0 °F 45% 30.49 in 10.0 mi NNW 6.9 mph - N/A   Clear
4:52 PM 39.0 °F 35.7 °F 21.9 °F 50% 30.50 in 10.0 mi NNW 4.6 mph - N/A   Clear
5:52 PM 32.0 °F - 24.1 °F 73% 30.53 in 10.0 mi Calm Calm - N/A   Clear
6:52 PM 28.9 °F - 24.1 °F 82% 30.52 in 10.0 mi Calm Calm - N/A   Clear
7:52 PM 28.0 °F - 23.0 °F 81% 30.52 in 10.0 mi Calm Calm - N/A   Clear
8:52 PM 27.0 °F - 24.1 °F 89% 30.53 in 10.0 mi Calm Calm - N/A   Clear
9:52 PM 26.1 °F - 23.0 °F 88% 30.52 in 10.0 mi Calm Calm - N/A   Clear
10:52 PM 26.1 °F - 23.0 °F 88% 30.53 in 10.0 mi Calm Calm - N/A   Clear
11:52 PM 24.1 °F - 21.0 °F 88% 30.50 in 10.0 mi Calm Calm - N/A   Clear